Location: Firdgum
(53.2488°N, 5.5615°E)
Time: 07:22:24
(UTC+00:00)

Cosmos 1634 Rocket - Pass Details

Date: 08 December 2019
Orbit: 960 x 992 km, 82.9° (Epoch: 18 January)

Event Time Altitude Azimuth Distance (km) Brightness Sun altitude
Rises 05:37:13 0° 195° (SSW) 3,658 7.0 -16.9°
Reaches altitude 10° 05:39:44 10° 198° (SSW) 2,711 6.3 -16.5°
Maximum altitude 05:45:56 72° 283° (WNW) 1,016 3.9 -15.6°
Drops below altitude 10° 05:52:08 10° 8° (N) 2,712 6.2 -14.7°
Sets 05:54:40 0° 10° (N) 3,660 6.9 -14.4°
